GW0496 Weather Reports


Display with metric or nautical units.
time (UTC)temp
F
wind
direction
speed
MPH
gust
MPH
rain 1hr
in
rain 24hr
in
rain mn
in
humidity
%
barometer
mb
20260507060830 52 311 0.0 0.0 0.00 0.00 0.00 98 1006.1
20260507060326 52 297 0.0 0.0 0.00 0.00 0.00 98 1006.3
20260507055823 52 311 0.0 0.0 0.00 0.00 0.00 98 1006.4
20260507055318 52 318 0.0 0.0 0.00 0.00 0.00 98 1006.3
20260507054815 52 297 0.0 0.0 0.00 0.00 0.00 98 1006.4
20260507054311 52 315 0.0 0.0 0.00 0.00 0.00 98 1006.5
20260507053808 52 314 0.0 0.0 0.00 0.00 0.00 98 1006.4
20260507053306 52 314 0.0 0.0 0.00 0.00 0.00 98 1006.4
20260507052805 52 264 1.0 5.0 0.00 0.00 0.00 98 1006.7
20260507052300 52 286 0.0 0.0 0.00 0.00 0.00 98 1006.6
20260507051759 52 280 4.0 7.0 0.00 0.00 0.00 98 1006.6
20260507051256 52 278 2.0 5.0 0.00 0.00 0.00 98 1006.9
20260507050752 52 262 0.0 0.0 0.00 0.00 0.00 98 1007.0
20260507050249 52 276 0.0 0.0 0.00 0.00 0.00 98 1007.0
20260507045746 52 252 1.0 3.0 0.00 0.00 0.00 98 1007.1
20260507045242 52 286 1.0 5.0 0.00 0.00 0.00 98 1006.9
20260507044740 52 267 0.0 0.0 0.00 0.00 0.00 98 1007.0
20260507044236 53 303 0.0 0.0 0.00 0.00 0.00 98 1006.9
20260507043732 53 287 0.0 0.0 0.00 0.00 0.00 98 1006.9
20260507043229 53 277 0.0 0.0 0.00 0.00 0.00 98 1006.9
20260507042725 53 309 1.0 3.0 0.00 0.00 0.00 97 1006.9
20260507042220 53 301 0.0 0.0 0.00 0.00 0.00 97 1007.1
20260507041718 53 274 0.0 1.0 0.00 0.00 0.00 97 1006.8
20260507041214 53 239 3.0 6.0 0.00 0.00 0.00 97 1007.1
20260507040712 54 253 6.0 14.0 0.00 0.00 0.00 97 1007.4
20260507040207 54 297 2.0 3.0 0.00 0.00 0.00 97 1007.4
20260507035703 54 223 7.0 10.0 0.00 0.17 0.17 97 1007.5
20260507035159 54 273 0.0 1.0 0.00 0.17 0.17 97 1007.2
20260507034656 54 275 2.0 3.0 0.00 0.17 0.17 96 1007.3
20260507034154 54 283 0.0 2.0 0.00 0.17 0.17 96 1007.3
20260507033652 54 280 1.0 2.0 0.00 0.17 0.17 96 1007.2
20260507033149 54 277 3.0 6.0 0.00 0.17 0.17 96 1007.4
20260507032646 54 280 0.0 1.0 0.00 0.17 0.17 96 1007.0
20260507032142 54 248 3.0 8.0 0.00 0.17 0.17 96 1007.0
20260507031639 55 308 6.0 9.0 0.00 0.17 0.17 96 1007.0
20260507031135 55 292 0.0 0.0 0.00 0.17 0.17 96 1007.1
20260507030632 55 268 3.0 8.0 0.00 0.17 0.17 96 1007.1
20260507030131 55 259 3.0 9.0 0.00 0.17 0.17 96 1007.1
20260507025627 55 249 0.0 2.0 0.00 0.17 0.17 96 1006.9
20260507025124 55 347 2.0 5.0 0.00 0.17 0.17 96 1007.0
20260507024622 55 236 4.0 11.0 0.00 0.17 0.17 96 1007.2
20260507024119 55 273 2.0 6.0 0.00 0.17 0.17 96 1007.3
20260507023614 55 279 7.0 9.0 0.00 0.17 0.17 95 1007.3
20260507023112 55 297 0.0 0.0 0.00 0.17 0.17 95 1007.6
20260507022609 55 265 1.0 2.0 0.00 0.17 0.17 95 1007.5
20260507022104 55 252 2.0 5.0 0.00 0.17 0.17 95 1007.6
20260507021601 55 245 0.0 0.0 0.00 0.17 0.17 95 1007.7
20260507021057 55 259 0.0 0.0 0.00 0.17 0.17 95 1007.5
20260507020555 55 303 0.0 0.0 0.00 0.17 0.17 95 1007.9
20260507020051 55 337 0.0 0.0 0.00 0.17 0.17 95 1007.7
20260507015549 55 304 0.0 0.0 0.00 0.17 0.17 95 1007.5
20260507015046 55 287 1.0 5.0 0.00 0.17 0.17 95 1007.7
20260507014543 56 240 2.0 7.0 0.00 0.17 0.17 95 1007.7
20260507014033 56 276 1.0 5.0 0.00 0.17 0.17 94 1007.8
20260507013530 56 302 0.0 1.0 0.00 0.17 0.17 94 1007.7
20260507013027 56 297 1.0 3.0 0.00 0.17 0.17 94 1007.8
20260507012524 57 270 9.0 13.0 0.00 0.17 0.17 94 1007.7
20260507012020 57 25 9.0 15.0 0.00 0.17 0.17 94 1007.6
20260507011518 57 235 7.0 15.0 0.00 0.17 0.17 94 1007.6
20260507011014 57 241 6.0 9.0 0.00 0.17 0.17 94 1007.7
20260507010508 57 274 4.0 9.0 0.00 0.17 0.17 94 1008.0
20260507010005 57 235 2.0 6.0 0.00 0.17 0.17 94 1007.7
20260507005503 57 285 2.0 7.0 0.00 0.17 0.17 95 1007.7
20260507004959 57 272 0.0 1.0 0.00 0.17 0.17 95 1007.7
20260507004456 57 217 0.0 0.0 0.00 0.17 0.17 95 1007.8
20260507003954 57 192 5.0 11.0 0.00 0.17 0.17 95 1007.7
20260507003448 57 268 2.0 8.0 0.00 0.17 0.17 96 1007.6
20260507002943 57 315 0.0 0.0 0.07 0.17 0.17 96 1008.0
20260507002440 57 296 0.0 3.0 0.12 0.17 0.17 96 1007.7
20260507001937 56 323 0.0 0.0 0.05 0.16 0.16 96 1007.6
20260507001434 56 296 5.0 7.0 0.00 0.15 0.15 95 1007.8
20260507000932 56 259 0.0 0.0 0.19 0.15 0.15 95 1007.7
20260507000427 56 299 0.0 0.0 0.31 0.15 0.15 95 1007.8
20260506235922 56 282 0.0 0.0 0.12 0.12 0.12 95 1007.8
20260506235420 56 345 0.0 0.0 0.00 0.10 0.10 94 1007.7
20260506234910 57 283 0.0 0.0 0.00 0.10 0.10 94 1007.7
20260506234408 56 304 0.0 0.0 0.07 0.10 0.10 95 1007.9
20260506233906 56 229 0.0 0.0 0.07 0.10 0.10 95 1007.4
20260506233401 56 293 0.0 0.0 0.05 0.09 0.09 95 1007.8
20260506232858 56 223 0.0 0.0 0.05 0.09 0.09 95 1007.7
20260506232354 56 310 0.0 0.0 0.07 0.08 0.08 94 1007.6
20260506231850 56 223 0.0 0.0 0.12 0.08 0.08 94 1007.7
20260506231348 57 285 1.0 2.0 0.12 0.07 0.07 94 1008.0
20260506230846 57 273 1.0 3.0 0.12 0.06 0.06 94 1008.0
20260506230342 57 249 0.0 0.0 0.05 0.05 0.05 94 1008.2
20260506225838 57 257 0.0 0.0 0.07 0.04 0.04 94 1008.2
20260506225336 57 191 0.0 0.0 0.12 0.04 0.04 93 1008.3
20260506224833 57 194 0.0 1.0 0.05 0.03 0.03 92 1008.2
20260506224330 57 268 2.0 6.0 0.00 0.02 0.02 92 1008.5
20260506223826 57 282 1.0 3.0 0.07 0.02 0.02 92 1008.5
20260506223321 57 259 0.0 0.0 0.12 0.02 0.02 91 1008.4
20260506222819 58 224 0.0 0.0 0.05 0.01 0.01 89 1008.3
20260506222314 58 251 0.0 0.0 0.00 0.00 0.00 88 1008.3
20260506221813 58 245 2.0 6.0 0.00 0.00 0.00 86 1008.5
20260506221310 58 247 0.0 1.0 0.00 0.00 0.00 86 1008.3
20260506220807 58 257 0.0 2.0 0.00 0.00 0.00 86 1008.3
20260506220302 58 284 0.0 0.0 0.00 0.00 0.00 86 1008.2
20260506215759 59 124 1.0 7.0 0.00 0.00 0.00 86 1008.3
20260506215255 59 246 0.0 0.0 0.00 0.00 0.00 83 1008.4
20260506214751 59 3 0.0 0.0 0.00 0.00 0.00 82 1008.3
20260506214248 59 209 0.0 0.0 0.00 0.00 0.00 81 1008.3
20260506213746 59 319 0.0 1.0 0.00 0.00 0.00 82 1008.5
20260506213243 59 235 0.0 0.0 0.00 0.00 0.00 82 1008.4
20260506212740 59 275 0.0 0.0 0.00 0.00 0.00 83 1008.6
20260506212236 59 296 0.0 1.0 0.00 0.00 0.00 83 1008.8
20260506211731 59 294 0.0 0.0 0.00 0.00 0.00 83 1008.7
20260506211228 59 327 0.0 0.0 0.00 0.00 0.00 83 1008.5
20260506210725 60 1 0.0 2.0 0.00 0.00 0.00 81 1008.8
20260506210222 60 281 1.0 3.0 0.00 0.00 0.00 79 1008.6
20260506205719 60 304 0.0 0.0 0.00 0.00 0.00 79 1009.0
20260506205214 60 317 0.0 0.0 0.00 0.00 0.00 80 1008.4
20260506204712 60 347 1.0 3.0 0.00 0.00 0.00 79 1008.6
20260506204209 60 318 0.0 0.0 0.00 0.00 0.00 79 1008.8
20260506203707 60 319 0.0 0.0 0.00 0.00 0.00 80 1008.8
20260506203204 60 177 2.0 7.0 0.00 0.00 0.00 80 1009.0
20260506202702 60 232 0.0 0.0 0.00 0.00 0.00 78 1009.0
20260506202157 60 193 0.0 0.0 0.00 0.00 0.00 78 1009.1
20260506201654 60 237 0.0 0.0 0.00 0.00 0.00 78 1008.8
20260506201150 60 230 0.0 0.0 0.00 0.00 0.00 78 1009.1
20260506200648 60 287 0.0 0.0 0.00 0.00 0.00 77 1009.0
20260506200144 60 261 0.0 0.0 0.00 0.00 0.00 77 1009.4
20260506195641 60 291 0.0 0.0 0.00 0.00 0.00 77 1009.3
20260506195137 60 299 0.0 0.0 0.00 0.00 0.00 76 1009.3
20260506194635 61 302 0.0 0.0 0.00 0.00 0.00 76 1009.2
20260506194131 61 311 0.0 0.0 0.00 0.00 0.00 76 1009.4
20260506193629 60 310 0.0 0.0 0.00 0.00 0.00 77 1009.7
20260506193126 60 298 1.0 2.0 0.00 0.00 0.00 77 1009.5
20260506192622 60 312 0.0 0.0 0.00 0.00 0.00 77 1009.6
20260506192118 60 343 0.0 1.0 0.00 0.00 0.00 77 1009.5
20260506191615 60 279 0.0 0.0 0.00 0.00 0.00 77 1009.5
20260506191111 60 86 0.0 0.0 0.00 0.00 0.00 77 1009.7
20260506190609 60 332 0.0 1.0 0.00 0.00 0.00 77 1009.5
20260506190106 60 162 0.0 0.0 0.00 0.00 0.00 77 1009.7
20260506185603 60 322 0.0 0.0 0.00 0.00 0.00 76 1009.4
20260506185059 61 266 0.0 2.0 0.00 0.00 0.00 76 1009.6
20260506184556 61 305 0.0 1.0 0.00 0.00 0.00 75 1009.8
20260506184054 62 290 0.0 0.0 0.00 0.00 0.00 74 1009.8
20260506183549 61 255 0.0 0.0 0.00 0.00 0.00 75 1010.1
20260506183046 61 250 2.0 3.0 0.00 0.00 0.00 74 1010.2
20260506182544 61 302 0.0 0.0 0.00 0.00 0.00 75 1010.2
20260506182041 62 262 0.0 2.0 0.00 0.00 0.00 74 1010.2
20260506181539 61 308 0.0 1.0 0.00 0.00 0.00 74 1010.3
20260506181035 61 232 0.0 1.0 0.00 0.00 0.00 75 1010.5
20260506180532 62 284 0.0 1.0 0.00 0.00 0.00 75 1010.6
20260506180029 62 259 0.0 0.0 0.00 0.00 0.00 74 1010.8
20260506175525 62 193 0.0 1.0 0.00 0.00 0.00 74 1010.8
20260506175021 63 227 2.0 5.0 0.00 0.00 0.00 73 1010.8
20260506174520 64 258 0.0 2.0 0.00 0.00 0.00 71 1010.8
20260506174016 64 244 0.0 0.0 0.00 0.00 0.00 70 1010.9
20260506173514 64 251 0.0 1.0 0.00 0.00 0.00 71 1010.8
20260506173010 64 288 2.0 8.0 0.00 0.00 0.00 70 1011.0
20260506172508 65 309 1.0 2.0 0.00 0.00 0.00 69 1010.6
20260506172004 65 292 0.0 0.0 0.00 0.00 0.00 70 1010.8
20260506171501 65 294 0.0 0.0 0.00 0.00 0.00 69 1010.8
20260506170959 65 318 0.0 0.0 0.00 0.00 0.00 68 1010.9
20260506170455 65 299 0.0 1.0 0.00 0.00 0.00 69 1011.3
20260506165948 64 288 2.0 3.0 0.00 0.00 0.00 70 1011.6
20260506165447 64 336 3.0 8.0 0.00 0.00 0.00 72 1011.1
20260506164942 64 236 2.0 6.0 0.00 0.00 0.00 71 1011.4
20260506164439 64 197 0.0 1.0 0.00 0.00 0.00 70 1011.4
20260506163937 64 287 0.0 2.0 0.00 0.00 0.00 71 1011.2
20260506163431 64 315 0.0 1.0 0.00 0.00 0.00 71 1011.4
20260506162926 64 291 1.0 3.0 0.00 0.00 0.00 71 1011.8
20260506162424 65 279 5.0 11.0 0.00 0.00 0.00 70 1011.7
20260506161921 65 68 3.0 10.0 0.00 0.00 0.00 69 1011.8
20260506161420 65 267 0.0 0.0 0.00 0.00 0.00 70 1011.6
20260506160911 65 271 0.0 0.0 0.00 0.00 0.00 70 1011.7
20260506160408 65 331 0.0 1.0 0.00 0.00 0.00 70 1011.7
20260506155906 66 253 0.0 1.0 0.00 0.00 0.00 69 1011.9
20260506155403 65 237 0.0 0.0 0.00 0.00 0.00 69 1012.0
20260506153525 65 186 0.0 0.0 0.00 0.00 0.00 71 1012.4
20260506153023 64 232 0.0 1.0 0.00 0.00 0.00 71 1012.5
20260506152519 65 231 1.0 3.0 0.00 0.00 0.00 70 1012.7
20260506152018 65 279 0.0 0.0 0.00 0.00 0.00 70 1012.3
20260506151515 64 262 1.0 3.0 0.00 0.00 0.00 71 1012.5
20260506151012 64 216 0.0 1.0 0.00 0.00 0.00 72 1012.5
20260506150508 64 165 0.0 0.0 0.00 0.00 0.00 71 1012.3
20260506150005 63 244 1.0 5.0 0.00 0.00 0.00 72 1012.3
20260506145502 62 254 0.0 0.0 0.00 0.00 0.00 74 1012.2
20260506144959 62 275 0.0 1.0 0.00 0.00 0.00 75 1012.2
20260506144456 62 289 1.0 3.0 0.00 0.00 0.00 73 1012.1
20260506143954 63 326 4.0 8.0 0.00 0.00 0.00 72 1012.1
20260506143451 63 311 0.0 0.0 0.00 0.00 0.00 71 1012.0
20260506142949 64 255 0.0 0.0 0.00 0.00 0.00 71 1011.8
20260506142447 63 282 0.0 1.0 0.00 0.00 0.00 72 1012.0
20260506141944 63 254 3.0 9.0 0.00 0.00 0.00 72 1012.0
20260506141442 64 235 0.0 2.0 0.00 0.00 0.00 71 1012.2
20260506140941 65 257 4.0 6.0 0.00 0.00 0.00 69 1012.1
20260506140437 65 291 0.0 0.0 0.00 0.00 0.00 69 1012.2
20260506135934 65 352 1.0 5.0 0.00 0.00 0.00 69 1012.2
20260506135431 65 287 0.0 1.0 0.00 0.00 0.00 71 1012.3
20260506134927 65 258 0.0 0.0 0.00 0.00 0.00 70 1012.4
20260506134423 65 149 4.0 9.0 0.00 0.00 0.00 70 1012.2
20260506133920 64 23 0.0 0.0 0.00 0.00 0.00 70 1012.3
20260506133417 64 242 0.0 0.0 0.00 0.00 0.00 71 1012.4
20260506132914 65 132 3.0 8.0 0.00 0.00 0.00 70 1012.1
20260506132411 64 282 0.0 0.0 0.00 0.00 0.00 71 1012.3
20260506131909 64 277 1.0 6.0 0.00 0.00 0.00 71 1012.0
20260506131405 64 281 0.0 1.0 0.00 0.00 0.00 70 1012.1
20260506130902 64 267 0.0 0.0 0.00 0.00 0.00 72 1012.3
20260506130358 64 313 1.0 2.0 0.00 0.00 0.00 72 1012.2
20260506125857 63 212 0.0 0.0 0.00 0.00 0.00 73 1012.3
20260506125355 63 181 1.0 3.0 0.00 0.00 0.00 73 1012.3
20260506124853 63 276 0.0 1.0 0.00 0.00 0.00 73 1012.3
20260506124349 63 163 1.0 5.0 0.00 0.00 0.00 73 1012.5
20260506123847 63 211 1.0 5.0 0.00 0.00 0.00 73 1012.3
20260506123345 63 274 3.0 10.0 0.00 0.00 0.00 74 1012.2
20260506122842 63 256 0.0 0.0 0.00 0.00 0.00 75 1012.3
20260506122339 62 176 0.0 0.0 0.00 0.00 0.00 75 1012.3
20260506121837 62 291 0.0 2.0 0.00 0.00 0.00 75 1012.4
20260506121334 62 271 0.0 0.0 0.00 0.00 0.00 75 1012.2
20260506120831 62 349 1.0 3.0 0.00 0.00 0.00 76 1012.5
20260506120329 61 270 1.0 3.0 0.00 0.00 0.00 77 1012.7
20260506115826 61 214 4.0 10.0 0.00 0.00 0.00 78 1012.5
20260506115324 60 256 1.0 3.0 0.00 0.00 0.00 80 1012.7
20260506114822 60 275 5.0 16.0 0.00 0.00 0.00 80 1012.8
20260506114319 60 262 1.0 5.0 0.00 0.00 0.00 80 1012.4
20260506113818 60 344 0.0 0.0 0.00 0.00 0.00 80 1012.6
20260506113315 60 288 5.0 10.0 0.00 0.00 0.00 79 1012.5
20260506112811 61 311 3.0 9.0 0.00 0.00 0.00 78 1012.7
20260506112309 60 244 3.0 9.0 0.00 0.00 0.00 80 1012.8
20260506111806 61 269 3.0 8.0 0.00 0.00 0.00 79 1012.6
20260506111304 61 285 4.0 8.0 0.00 0.00 0.00 78 1012.5
20260506110801 60 225 0.0 0.0 0.00 0.00 0.00 80 1012.6
20260506110258 60 215 0.0 0.0 0.00 0.00 0.00 81 1012.6
20260506105754 60 249 3.0 7.0 0.00 0.00 0.00 80 1012.6
20260506105252 59 301 3.0 7.0 0.00 0.00 0.00 82 1012.6
20260506104749 59 257 0.0 0.0 0.00 0.00 0.00 82 1012.6
20260506104247 59 282 0.0 1.0 0.00 0.00 0.00 83 1012.5
20260506103744 59 277 0.0 1.0 0.00 0.00 0.00 83 1012.8
20260506103241 59 265 2.0 10.0 0.00 0.00 0.00 83 1012.7
20260506102739 59 281 2.0 5.0 0.00 0.00 0.00 83 1012.8
20260506102237 59 235 0.0 1.0 0.00 0.00 0.00 84 1012.6
20260506101733 59 333 0.0 1.0 0.00 0.00 0.00 84 1012.7
20260506101230 58 229 1.0 3.0 0.00 0.00 0.00 85 1012.5
20260506100728 58 313 1.0 3.0 0.00 0.00 0.00 86 1012.8
20260506100226 57 293 0.0 2.0 0.00 0.00 0.00 87 1012.6
20260506095724 57 242 1.0 5.0 0.00 0.00 0.00 87 1012.8
20260506095220 57 268 0.0 0.0 0.00 0.00 0.00 88 1012.8
20260506094717 56 265 0.0 0.0 0.00 0.00 0.00 88 1012.7
20260506094215 56 285 2.0 5.0 0.00 0.00 0.00 89 1012.7
20260506093714 56 121 2.0 6.0 0.00 0.00 0.00 88 1012.9
20260506093210 56 264 7.0 11.0 0.00 0.00 0.00 88 1013.1
20260506092709 56 297 3.0 7.0 0.00 0.00 0.00 88 1012.9
20260506092206 56 319 1.0 2.0 0.00 0.00 0.00 88 1013.1
20260506091703 56 273 3.0 7.0 0.00 0.00 0.00 88 1012.9
20260506091201 56 279 0.0 2.0 0.00 0.00 0.00 89 1013.0
20260506090658 56 253 3.0 8.0 0.00 0.00 0.00 89 1012.9
20260506090155 56 267 1.0 5.0 0.00 0.00 0.00 89 1012.6
20260506085652 56 309 3.0 7.0 0.00 0.00 0.00 89 1012.8
20260506085148 56 271 3.0 9.0 0.00 0.00 0.00 89 1012.7
20260506084645 56 300 0.0 0.0 0.00 0.00 0.00 89 1013.0
20260506084141 56 251 0.0 0.0 0.00 0.00 0.00 90 1013.0
20260506083638 56 262 2.0 7.0 0.00 0.00 0.00 90 1012.9
20260506083136 56 234 2.0 6.0 0.00 0.00 0.00 90 1013.0
20260506082633 56 283 8.0 11.0 0.00 0.00 0.00 90 1012.8
20260506082128 55 64 0.0 1.0 0.00 0.00 0.00 90 1013.0
20260506081627 55 297 2.0 5.0 0.00 0.00 0.00 90 1013.2
20260506081124 55 262 3.0 7.0 0.00 0.00 0.00 90 1013.1
20260506080622 55 254 0.0 0.0 0.00 0.00 0.00 90 1012.9
20260506080118 55 327 0.0 0.0 0.00 0.00 0.00 90 1013.1
20260506073102 55 288 1.0 3.0 0.00 0.00 0.00 91 1013.0
20260506072558 55 295 2.0 5.0 0.00 0.00 0.00 91 1012.9
20260506072056 55 267 0.0 0.0 0.00 0.00 0.00 92 1013.0
20260506071554 55 271 2.0 6.0 0.00 0.00 0.00 92 1012.9
20260506071051 55 276 0.0 3.0 0.00 0.00 0.00 91 1012.9
20260506070548 55 262 1.0 2.0 0.00 0.00 0.00 91 1012.9
20260506062022 54 279 0.0 0.0 0.00 0.00 0.00 91 1013.0
20260506061518 54 268 0.0 0.0 0.00 0.00 0.00 91 1013.0